Leakey, Texas, United States (78873)
Lat: 29.73N, Lon: 99.76W
Wx Zone: TXZ185
Local Info
Past Weather Observations for Sunday, April 13, 2014

NOTE: This archive is for the closest National Weather Service station to Leakey. Information may differ from the station used for current weather conditions.

Time Weather Temperature Dewpoint Humidity Pressure Winds Precip Visibility
23:55
Clear
68°F / 20°C 61°F / 16°C 78% 29.77 in
(1008 mb)
SE 9.2 mph
(SE 15 kph)
- 10SM
23:35
Clear
68°F / 20°C 61°F / 16°C 78% 29.74 in
(1007 mb)
SE 8.1 mph
(SE 13 kph)
- 10SM
23:15
Clear
68°F / 20°C 61°F / 16°C 78% 29.77 in
(1008 mb)
SSE 8.1 mph
(SSE 13 kph)
- 10SM
22:55
Clear
68°F / 20°C 61°F / 16°C 78% 29.77 in
(1008 mb)
SE 8.1 mph
(SE 13 kph)
- 10SM
22:35
Clear
66°F / 19°C 61°F / 16°C 83% 29.77 in
(1008 mb)
SE 8.1 mph
(SE 13 kph)
- 10SM
22:15
Clear
66°F / 19°C 61°F / 16°C 83% 29.77 in
(1008 mb)
SE 5.8 mph
(SE 9 kph)
- 10SM
21:55
Clear
68°F / 20°C 63°F / 17°C 83% 29.77 in
(1008 mb)
SE 5.8 mph
(SE 9 kph)
- 10SM
21:35
Clear
70°F / 21°C 63°F / 17°C 78% 29.74 in
(1007 mb)
SE 8.1 mph
(SE 13 kph)
- 10SM
21:15
Clear
70°F / 21°C 63°F / 17°C 78% 29.74 in
(1007 mb)
SE 6.9 mph
(SE 11 kph)
- 10SM
20:55
Clear
68°F / 20°C 61°F / 16°C 78% 29.74 in
(1007 mb)
SE 5.8 mph
(SE 9 kph)
- 8SM
20:35
Clear
68°F / 20°C 63°F / 17°C 83% 29.74 in
(1007 mb)
SE 5.8 mph
(SE 9 kph)
- 8SM
20:15
Clear
70°F / 21°C 63°F / 17°C 78% 29.74 in
(1007 mb)
SE 5.8 mph
(SE 9 kph)
- 9SM
19:55
Clear
70°F / 21°C 63°F / 17°C 78% 29.74 in
(1007 mb)
SE 5.8 mph
(SE 9 kph)
- 9SM
19:35
Clear
70°F / 21°C 63°F / 17°C 78% 29.74 in
(1007 mb)
ESE 4.6 mph
(ESE 7 kph)
-
19:15
Clear
72°F / 22°C 63°F / 17°C 73% 29.74 in
(1007 mb)
Calm - 8SM
18:55
Clear
Hazy
73°F / 23°C 63°F / 17°C 69% 29.71 in
(1006 mb)
SE 4.6 mph
(SE 7 kph)
- 2SM
18:35
Clear
75°F / 24°C 63°F / 17°C 65% 29.74 in
(1007 mb)
SE 8.1 mph
(SE 13 kph)
- 8SM
18:15
Clear
75°F / 24°C 63°F / 17°C 65% 29.74 in
(1007 mb)
SE 9.2 mph
(SE 15 kph)
- 8SM
17:55
Clear
75°F / 24°C 63°F / 17°C 65% 29.74 in
(1007 mb)
SSE 11.5 mph
(SSE 19 kph)
- 7SM
17:35
Clear
75°F / 24°C 63°F / 17°C 65% 29.74 in
(1007 mb)
SE 8.1 mph
(SE 13 kph)
- 8SM
17:15
Clear
75°F / 24°C 63°F / 17°C 65% 29.74 in
(1007 mb)
SE 8.1 mph
(SE 13 kph)
- 8SM
16:55
Clear
73°F / 23°C 63°F / 17°C 69% 29.74 in
(1007 mb)
SSE 8.1 mph
(SSE 13 kph)
- 9SM
16:35
Clear
73°F / 23°C 63°F / 17°C 69% 29.74 in
(1007 mb)
S 6.9 mph
(S 11 kph)
- 7SM
16:15
Clear
73°F / 23°C 63°F / 17°C 69% 29.77 in
(1008 mb)
S 3.5 mph
(S 6 kph)
- 8SM
15:55
Partly Cloudy
73°F / 23°C 63°F / 17°C 69% 29.77 in
(1008 mb)
S 4.6 mph
(S 7 kph)
- 8SM
15:35
Mostly Cloudy
73°F / 23°C 63°F / 17°C 69% 29.77 in
(1008 mb)
Calm - 8SM
14:55
Partly Cloudy
72°F / 22°C 63°F / 17°C 73% 29.77 in
(1008 mb)
S 8.1 mph
(S 13 kph)
- 9SM
14:35
Partly Cloudy
72°F / 22°C 63°F / 17°C 73% 29.77 in
(1008 mb)
SSE 5.8 mph
(SSE 9 kph)
- 9SM
14:15
Partly Cloudy
72°F / 22°C 63°F / 17°C 73% 29.77 in
(1008 mb)
SE 8.1 mph
(SE 13 kph)
- 10SM
13:55
Partly Cloudy
70°F / 21°C 63°F / 17°C 78% 29.77 in
(1008 mb)
SE 10.4 mph
(SE 17 kph)
- 9SM
13:35
Partly Cloudy
70°F / 21°C 63°F / 17°C 78% 29.77 in
(1008 mb)
SSE 12.7 mph
(SSE 20 kph)
- 10SM
13:15
Partly Cloudy
72°F / 22°C 63°F / 17°C 73% 29.77 in
(1008 mb)
SE 11.5 mph
(SE 19 kph)
- 10SM
12:55
Partly Cloudy
72°F / 22°C 63°F / 17°C 73% 29.77 in
(1008 mb)
SSE 15 mph
(SSE 24 kph)
- 10SM
12:35
Mostly Cloudy
72°F / 22°C 64°F / 18°C 78% 29.77 in
(1008 mb)
SSE 15 mph
(SSE 24 kph)
- 10SM
12:15
Mostly Cloudy
72°F / 22°C 64°F / 18°C 78% 29.77 in
(1008 mb)
SE 17.3 mph
(SE 28 kph)
- 10SM
11:55
Overcast
70°F / 21°C 64°F / 18°C 83% 29.8 in
(1009 mb)
SE 16.1 mph
(SE 26 kph)
- 9SM
11:35
Overcast
68°F / 20°C 64°F / 18°C 88% 29.83 in
(1010 mb)
SE 15 mph
(SE 24 kph)
- 9SM
11:15
Overcast
68°F / 20°C 64°F / 18°C 88% 29.86 in
(1011 mb)
SE 9.2 mph
(SE 15 kph)
- 8SM
10:55
Overcast
Fog And Mist
66°F / 19°C 64°F / 18°C 94% 29.86 in
(1011 mb)
SE 6.9 mph
(SE 11 kph)
- 5SM
10:35
Overcast
Fog And Mist
66°F / 19°C 66°F / 19°C 100% 29.86 in
(1011 mb)
SE 8.1 mph
(SE 13 kph)
- 5SM
10:15
Overcast
Fog And Mist
66°F / 19°C 64°F / 18°C 94% 29.86 in
(1011 mb)
ESE 5.8 mph
(ESE 9 kph)
- 4SM
09:55
Overcast
Fog And Mist
66°F / 19°C 66°F / 19°C 100% 29.86 in
(1011 mb)
SE 5.8 mph
(SE 9 kph)
- 3SM
09:35
Overcast
Fog And Mist
66°F / 19°C 66°F / 19°C 100% 29.89 in
(1012 mb)
SE 5.8 mph
(SE 9 kph)
- 2 1/2SM
09:15
Overcast
Fog And Mist
66°F / 19°C 66°F / 19°C 100% 29.89 in
(1012 mb)
SSE 4.6 mph
(SSE 7 kph)
- 1SM
08:55
Overcast
Fog And Mist
66°F / 19°C 66°F / 19°C 100% 29.89 in
(1012 mb)
SSE 6.9 mph
(SSE 11 kph)
- 3/4SM
08:35
Overcast
Light Rain
64°F / 18°C 64°F / 18°C 100% 29.89 in
(1012 mb)
S 4.6 mph
(S 7 kph)
- 1/2SM
08:15
Overcast
Light Rain
64°F / 18°C 64°F / 18°C 100% 29.92 in
(1013 mb)
SW 5.8 mph
(SW 9 kph)
- 3/4SM
07:55
Overcast
66°F / 19°C 64°F / 18°C 94% 29.89 in
(1012 mb)
SW 5.8 mph
(SW 9 kph)
-
07:35
Overcast
Fog And Mist
66°F / 19°C 64°F / 18°C 94% 29.86 in
(1011 mb)
S 11.5 mph
(S 19 kph)
- 3SM
07:15
Overcast
Fog And Mist
64°F / 18°C 64°F / 18°C 100% 29.83 in
(1010 mb)
SSE 13.8 mph
(SSE 22 kph)
- 2 1/2SM
06:55
Overcast
Fog And Mist
64°F / 18°C 64°F / 18°C 100% 29.83 in
(1010 mb)
SSE 12.7 mph
(SSE 20 kph)
- 1 3/4SM
06:35
Overcast
Fog And Mist
64°F / 18°C 64°F / 18°C 100% 29.8 in
(1009 mb)
SSE 13.8 mph
(SSE 22 kph)
- 2 1/2SM
06:15
Overcast
Fog And Mist
64°F / 18°C 64°F / 18°C 100% 29.8 in
(1009 mb)
SSE 10.4 mph
(SSE 17 kph)
- 2SM
05:55
Overcast
Fog And Mist
64°F / 18°C 64°F / 18°C 100% 29.8 in
(1009 mb)
SSE 10.4 mph
(SSE 17 kph)
- 1 3/4SM
05:35
Overcast
Fog And Mist
64°F / 18°C 64°F / 18°C 100% 29.8 in
(1009 mb)
SSE 16.1 mph
(SSE 26 kph)
- 2 1/2SM
05:15
Overcast
Fog And Mist
64°F / 18°C 64°F / 18°C 100% 29.8 in
(1009 mb)
SSE 15 mph
(SSE 24 kph)
- 3SM
04:55
Overcast
Fog And Mist
64°F / 18°C 64°F / 18°C 100% 29.8 in
(1009 mb)
SSE 15 mph
(SSE 24 kph)
- 3SM
04:35
Overcast
Fog And Mist
64°F / 18°C 64°F / 18°C 100% 29.77 in
(1008 mb)
SSE 16.1 mph
(SSE 26 kph)
- 3SM
04:15
Overcast
Fog And Mist
64°F / 18°C 64°F / 18°C 100% 29.8 in
(1009 mb)
SE 15 mph
(SE 24 kph)
- 4SM
03:55
Overcast
Fog And Mist
64°F / 18°C 64°F / 18°C 100% 29.8 in
(1009 mb)
SE 11.5 mph
(SE 19 kph)
- 3SM
03:35
Overcast
Fog And Mist
64°F / 18°C 64°F / 18°C 100% 29.83 in
(1010 mb)
SSE 13.8 mph
(SSE 22 kph)
- 3SM
03:15
Overcast
Fog And Mist
64°F / 18°C 64°F / 18°C 100% 29.83 in
(1010 mb)
SE 16.1 mph
(SE 26 kph)
- 4SM
02:55
Overcast
Fog And Mist
64°F / 18°C 63°F / 17°C 94% 29.83 in
(1010 mb)
SE 13.8 mph
(SE 22 kph)
- 5SM
02:35
Overcast
66°F / 19°C 63°F / 17°C 88% 29.86 in
(1011 mb)
SE 13.8 mph
(SE 22 kph)
- 7SM
02:15
Overcast
66°F / 19°C 63°F / 17°C 88% 29.86 in
(1011 mb)
SE 15 mph
(SE 24 kph)
- 10SM
01:55
Overcast
66°F / 19°C 63°F / 17°C 88% 29.86 in
(1011 mb)
SE 11.5 mph
(SE 19 kph)
- 10SM
01:35
Overcast
66°F / 19°C 63°F / 17°C 88% 29.89 in
(1012 mb)
SE 13.8 mph
(SE 22 kph)
- 10SM
01:15
Overcast
66°F / 19°C 63°F / 17°C 88% 29.89 in
(1012 mb)
SSE 17.3 mph
(SSE 28 kph)
- 10SM
00:55
Overcast
66°F / 19°C 63°F / 17°C 88% 29.89 in
(1012 mb)
SSE 18.4 mph
(SSE 30 kph)
- 10SM
00:35
Mostly Cloudy
68°F / 20°C 63°F / 17°C 83% 29.89 in
(1012 mb)
SE 15 mph
(SE 24 kph)
- 10SM
00:15
Mostly Cloudy
68°F / 20°C 63°F / 17°C 83% 29.89 in
(1012 mb)
SE 15 mph
(SE 24 kph)
- 10SM
Time Weather Temperature Dewpoint Humidity Pressure Winds Precip Visibility


Weather for websites

WeatherForYou.com, LLC is not responsible for any damages or problems caused by this service. Current weather conditions are obtained from the closest station including government and personal stations which may have varying degrees of accuracy. Weather forecasts are derived from the NOAA NDFD. Like all things, this site belongs to Jesus Christ... He just trusts me to maintain it. If you have any questions or comments email webmaster@weatherforyou.com

Copyright © 2014, WeatherForYou.com LLC. All rights reserved.